Volver al catálogo

FENGYUN 1C DEB

ActivoSSO
NORAD 32191·DEBRIS·🇨🇳 China

Lanzado May 10, 1999 desde Taiyuan Satellite Launch Center

Loading…

Próximos Pases (próximas 24 horas)

TLE

ActualizadoSource: Space-Track

Época: Sep 13, 2026, 10:39 UTC

1 32191U 99025CUM 26256.44438037  .00001797  00000-0  72798-3 0  9995
2 32191  98.6843 315.4570 0092739 107.5102 253.6238 14.26635314684166

Sigue FENGYUN 1C DEB en tiempo real con AllMySat

Download on the App Store